KE7MWT Weather Reports


Display with metric or nautical units.
time (UTC)temp
F
wind
direction
speed
MPH
gust
MPH
rain 1hr
in
rain 24hr
in
rain mn
in
humidity
%
barometer
mb
20260507151831 74 159 1.0 3.0 0.00 0.00 0.00 26 1017.8
20260507151322 73 159 1.0 4.0 0.00 0.00 0.00 28 1017.9
20260507150813 73 159 0.0 2.0 0.00 0.00 0.00 32 1017.9
20260507150323 72 159 0.0 3.0 0.00 0.00 0.00 28 1017.9
20260507145829 72 159 1.0 5.0 0.00 0.00 0.00 28 1017.9
20260507145320 71 161 1.0 4.0 0.00 0.00 0.00 30 1017.9
20260507144847 71 161 0.0 1.0 0.00 0.00 0.00 30 1017.9
20260507144317 70 161 0.0 3.0 0.00 0.00 0.00 30 1017.9
20260507143844 70 161 1.0 3.0 0.00 0.00 0.00 30 1018.0
20260507143314 70 161 0.0 3.0 0.00 0.00 0.00 32 1017.9
20260507142821 69 161 0.0 3.0 0.00 0.00 0.00 33 1017.8
20260507142332 69 163 1.0 4.0 0.00 0.00 0.00 34 1017.8
20260507141818 68 163 1.0 5.0 0.00 0.00 0.00 35 1017.7
20260507141314 68 163 1.0 5.0 0.00 0.00 0.00 36 1017.7
20260507140821 67 207 1.0 3.0 0.00 0.00 0.00 37 1017.7
20260507140332 66 207 0.0 3.0 0.00 0.00 0.00 40 1017.7
20260507135819 65 223 0.0 1.0 0.00 0.00 0.00 41 1017.7
20260507135330 64 223 0.0 0.0 0.00 0.00 0.00 44 1017.7
20260507134817 63 223 0.0 0.0 0.00 0.00 0.00 46 1017.6
20260507134328 62 223 0.0 0.0 0.00 0.00 0.00 47 1017.5
20260507133815 61 223 0.0 0.0 0.00 0.00 0.00 49 1017.4
20260507133325 61 223 0.0 0.0 0.00 0.00 0.00 50 1017.3
20260507132832 61 223 0.0 0.0 0.00 0.00 0.00 46 1017.3
20260507132327 61 223 0.0 0.0 0.00 0.00 0.00 46 1017.3
20260507131814 61 223 0.0 0.0 0.00 0.00 0.00 45 1017.2
20260507131345 60 223 0.0 0.0 0.00 0.00 0.00 45 1017.2
20260507130831 60 223 0.0 0.0 0.00 0.00 0.00 44 1017.2
20260507130343 60 223 0.0 0.0 0.00 0.00 0.00 43 1017.2
20260507125829 60 223 0.0 1.0 0.00 0.00 0.00 42 1017.1
20260507125320 60 223 0.0 2.0 0.00 0.00 0.00 43 1017.1
20260507124827 60 223 0.0 2.0 0.00 0.00 0.00 43 1017.0
20260507124318 60 223 0.0 0.0 0.00 0.00 0.00 44 1017.0
20260507123826 60 223 0.0 0.0 0.00 0.00 0.00 43 1017.0
20260507123321 60 223 0.0 2.0 0.00 0.00 0.00 44 1016.9
20260507122848 60 223 0.0 2.0 0.00 0.00 0.00 45 1016.9
20260507122316 60 223 0.0 2.0 0.00 0.00 0.00 44 1016.9
20260507121823 60 223 0.0 2.0 0.00 0.00 0.00 44 1016.9
20260507121313 60 223 0.0 2.0 0.00 0.00 0.00 44 1016.8
20260507120841 60 223 0.0 1.0 0.00 0.00 0.00 44 1016.9
20260507120332 60 223 0.0 1.0 0.00 0.00 0.00 45 1016.9
20260507115819 60 223 0.0 0.0 0.00 0.00 0.00 45 1017.0
20260507115330 60 223 0.0 0.0 0.00 0.00 0.00 44 1016.9
20260507114818 60 223 0.0 0.0 0.00 0.00 0.00 45 1017.0
20260507114330 60 223 0.0 0.0 0.00 0.00 0.00 43 1017.0
20260507113822 61 223 0.0 0.0 0.00 0.00 0.00 43 1017.0
20260507113314 61 223 0.0 0.0 0.00 0.00 0.00 43 1016.9
20260507112820 61 223 0.0 0.0 0.00 0.00 0.00 42 1016.9
20260507112329 61 223 0.0 0.0 0.00 0.00 0.00 42 1016.9
20260507111815 61 223 0.0 0.0 0.00 0.00 0.00 42 1016.9
20260507111325 61 223 0.0 0.0 0.00 0.00 0.00 40 1016.9
20260507110813 61 223 0.0 0.0 0.00 0.00 0.00 40 1016.9
20260507110346 61 223 0.0 1.0 0.00 0.00 0.00 40 1016.9
20260507105832 61 223 0.0 1.0 0.00 0.00 0.00 42 1017.0
20260507105321 61 223 0.0 2.0 0.00 0.00 0.00 43 1017.0
20260507104828 61 223 0.0 2.0 0.00 0.00 0.00 45 1017.0
20260507104318 61 223 0.0 0.0 0.00 0.00 0.00 47 1017.1
20260507103845 61 223 0.0 0.0 0.00 0.00 0.00 49 1017.1
20260507103319 61 223 0.0 0.0 0.00 0.00 0.00 48 1017.1
20260507102825 61 223 0.0 0.0 0.00 0.00 0.00 49 1017.1
20260507102336 61 223 0.0 0.0 0.00 0.00 0.00 49 1017.2
20260507101823 62 223 0.0 0.0 0.00 0.00 0.00 49 1017.1
20260507101313 62 223 0.0 0.0 0.00 0.00 0.00 47 1017.2
20260507100821 62 223 0.0 0.0 0.00 0.00 0.00 46 1017.2
20260507100313 62 223 0.0 0.0 0.00 0.00 0.00 45 1017.2
20260507095840 62 223 0.0 0.0 0.00 0.00 0.00 45 1017.3
20260507095329 62 223 0.0 0.0 0.00 0.00 0.00 45 1017.4
20260507094817 62 223 0.0 0.0 0.00 0.00 0.00 45 1017.5
20260507094326 62 223 0.0 0.0 0.00 0.00 0.00 46 1017.5
20260507093816 62 223 0.0 0.0 0.00 0.00 0.00 46 1017.6
20260507093326 62 223 0.0 0.0 0.00 0.00 0.00 46 1017.6
20260507092815 62 223 0.0 0.0 0.00 0.00 0.00 46 1017.7
20260507092325 62 223 0.0 0.0 0.00 0.00 0.00 47 1017.7
20260507091813 62 223 0.0 0.0 0.00 0.00 0.00 46 1017.7
20260507091324 62 223 0.0 0.0 0.00 0.00 0.00 45 1017.7
20260507090832 63 223 0.0 0.0 0.00 0.00 0.00 45 1017.7
20260507090323 63 223 0.0 0.0 0.00 0.00 0.00 45 1017.6
20260507085829 63 223 0.0 0.0 0.00 0.00 0.00 45 1017.7
20260507085325 63 223 0.0 0.0 0.00 0.00 0.00 45 1017.7
20260507084852 63 223 0.0 0.0 0.00 0.00 0.00 45 1017.8
20260507084322 63 223 0.0 0.0 0.00 0.00 0.00 45 1017.9
20260507083849 63 223 0.0 0.0 0.00 0.00 0.00 44 1017.8
20260507083319 64 223 0.0 0.0 0.00 0.00 0.00 43 1017.9
20260507082847 64 223 0.0 0.0 0.00 0.00 0.00 43 1017.9
20260507082316 64 223 0.0 0.0 0.00 0.00 0.00 43 1017.9
20260507081824 64 223 0.0 0.0 0.00 0.00 0.00 43 1017.9
20260507081316 64 223 0.0 1.0 0.00 0.00 0.00 43 1017.9
20260507080823 64 223 0.0 3.0 0.00 0.00 0.00 42 1018.0
20260507080314 64 223 0.0 2.0 0.00 0.00 0.00 41 1018.0
20260507075825 64 223 0.0 0.0 0.00 0.00 0.00 41 1018.1
20260507075335 64 223 0.0 0.0 0.00 0.00 0.00 42 1018.1
20260507074822 65 223 0.0 0.0 0.00 0.00 0.00 43 1018.1
20260507074313 65 223 0.0 2.0 0.00 0.00 0.00 42 1018.1
20260507073820 65 223 0.0 2.0 0.00 0.00 0.00 42 1018.1
20260507073329 65 223 0.0 0.0 0.00 0.00 0.00 43 1018.1
20260507072817 65 223 0.0 0.0 0.00 0.00 0.00 42 1018.1
20260507072327 65 223 0.0 0.0 0.00 0.00 0.00 42 1018.1
20260507071816 65 223 0.0 0.0 0.00 0.00 0.00 43 1018.1
20260507071328 66 223 0.0 0.0 0.00 0.00 0.00 42 1018.0
20260507070821 66 223 0.0 0.0 0.00 0.00 0.00 38 1018.0
20260507070315 66 223 0.0 0.0 0.00 0.00 0.00 39 1017.9
20260507065842 66 223 0.0 0.0 0.00 0.00 0.00 41 1018.0
20260507065332 66 223 0.0 0.0 0.00 0.00 0.00 42 1018.0
20260507064819 67 223 0.0 0.0 0.00 0.00 0.00 41 1018.0
20260507064331 67 223 0.0 0.0 0.00 0.00 0.00 41 1017.9
20260507063818 67 223 0.0 0.0 0.00 0.00 0.00 41 1017.9
20260507063328 67 223 0.0 0.0 0.00 0.00 0.00 39 1017.9
20260507062816 67 223 0.0 0.0 0.00 0.00 0.00 38 1017.8
20260507062327 67 223 0.0 0.0 0.00 0.00 0.00 37 1017.7
20260507061817 68 223 0.0 0.0 0.00 0.00 0.00 36 1017.8
20260507061348 68 223 0.0 0.0 0.00 0.00 0.00 35 1017.8
20260507060815 68 223 0.0 0.0 0.00 0.00 0.00 40 1017.8
20260507060325 68 223 0.0 0.0 0.00 0.00 0.00 40 1017.9
20260507055814 68 223 0.0 0.0 0.00 0.00 0.00 38 1017.9
20260507055346 69 223 0.0 0.0 0.00 0.00 0.00 40 1017.9
20260507054832 69 223 0.0 0.0 0.00 0.00 0.00 34 1017.8
20260507054323 69 223 0.0 0.0 0.00 0.00 0.00 34 1017.8
20260507053832 69 223 0.0 0.0 0.00 0.00 0.00 34 1017.8
20260507053322 69 223 0.0 0.0 0.00 0.00 0.00 34 1017.7
20260507052833 70 223 0.0 0.0 0.00 0.00 0.00 33 1017.7
20260507052324 70 223 0.0 0.0 0.00 0.00 0.00 32 1017.8
20260507051831 70 223 0.0 0.0 0.00 0.00 0.00 32 1017.8
20260507051322 70 223 0.0 0.0 0.00 0.00 0.00 32 1017.8
20260507050827 70 223 0.0 0.0 0.00 0.00 0.00 31 1017.8
20260507050319 71 223 0.0 0.0 0.00 0.00 0.00 32 1017.7
20260507045825 71 223 0.0 0.0 0.00 0.00 0.00 32 1017.6
20260507045314 71 223 0.0 0.0 0.00 0.00 0.00 31 1017.6
20260507044821 71 223 0.0 0.0 0.00 0.00 0.00 31 1017.6
20260507044330 72 223 0.0 0.0 0.00 0.00 0.00 31 1017.5
20260507043837 72 223 0.0 0.0 0.00 0.00 0.00 30 1017.5
20260507043326 72 223 0.0 0.0 0.00 0.00 0.00 29 1017.5
20260507042819 73 223 0.0 0.0 0.00 0.00 0.00 27 1017.5
20260507042330 73 223 0.0 0.0 0.00 0.00 0.00 27 1017.5
20260507041839 73 223 0.0 0.0 0.00 0.00 0.00 27 1017.4
20260507041348 73 223 0.0 0.0 0.00 0.00 0.00 26 1017.3
20260507040816 74 223 0.0 0.0 0.00 0.00 0.00 27 1017.3
20260507040328 74 223 0.0 0.0 0.00 0.00 0.00 26 1017.3
20260507035815 74 223 0.0 0.0 0.00 0.00 0.00 25 1017.2
20260507035326 75 223 0.0 0.0 0.00 0.00 0.00 25 1017.1
20260507034833 75 223 0.0 0.0 0.00 0.00 0.00 25 1017.0
20260507034324 75 223 0.0 0.0 0.00 0.00 0.00 25 1017.0
20260507033815 76 223 0.0 0.0 0.00 0.00 0.00 24 1017.0
20260507033326 76 223 0.0 0.0 0.00 0.00 0.00 24 1016.9
20260507032814 76 223 0.0 0.0 0.00 0.00 0.00 23 1016.8
20260507032325 77 223 0.0 0.0 0.00 0.00 0.00 23 1016.8
20260507031832 77 223 0.0 0.0 0.00 0.00 0.00 23 1016.7
20260507031323 77 223 0.0 0.0 0.00 0.00 0.00 22 1016.7
20260507030830 78 223 0.0 0.0 0.00 0.00 0.00 22 1016.6
20260507030342 78 223 0.0 0.0 0.00 0.00 0.00 22 1016.5
20260507025828 78 223 0.0 0.0 0.00 0.00 0.00 21 1016.5
20260507025323 79 223 0.0 0.0 0.00 0.00 0.00 21 1016.4
20260507024850 79 223 0.0 0.0 0.00 0.00 0.00 20 1016.4
20260507024339 80 223 0.0 0.0 0.00 0.00 0.00 20 1016.4
20260507023824 80 223 0.0 0.0 0.00 0.00 0.00 19 1016.3
20260507023315 80 223 0.0 0.0 0.00 0.00 0.00 18 1016.2
20260507022822 80 223 0.0 0.0 0.00 0.00 0.00 18 1016.2
20260507022333 81 223 0.0 3.0 0.00 0.00 0.00 17 1016.1
20260507021820 81 223 2.0 3.0 0.00 0.00 0.00 17 1016.0
20260507021331 81 223 0.0 3.0 0.00 0.00 0.00 17 1016.0
20260507020838 81 223 1.0 3.0 0.00 0.00 0.00 16 1015.9
20260507020348 82 223 1.0 4.0 0.00 0.00 0.00 17 1016.0
20260507015814 82 223 1.0 5.0 0.00 0.00 0.00 16 1016.0
20260507015345 82 223 2.0 5.0 0.00 0.00 0.00 16 1015.9
20260507014851 83 212 2.0 5.0 0.00 0.00 0.00 15 1015.9
20260507014325 83 212 2.0 4.0 0.00 0.00 0.00 15 1015.9
20260507013833 84 211 1.0 4.0 0.00 0.00 0.00 15 1015.9
20260507013324 85 209 2.0 4.0 0.00 0.00 0.00 15 1015.9
20260507012831 85 209 2.0 4.0 0.00 0.00 0.00 14 1015.9
20260507012322 86 209 2.0 5.0 0.00 0.00 0.00 14 1015.9
20260507011830 86 209 2.0 8.0 0.00 0.00 0.00 14 1015.9
20260507011321 87 209 3.0 8.0 0.00 0.00 0.00 14 1015.9
20260507010829 87 234 1.0 5.0 0.00 0.00 0.00 13 1015.9
20260507010321 87 234 2.0 5.0 0.00 0.00 0.00 14 1015.9
20260507005831 87 235 2.0 5.0 0.00 0.00 0.00 13 1015.9
20260507005321 88 235 2.0 4.0 0.00 0.00 0.00 13 1015.9
20260507004828 88 236 0.0 4.0 0.00 0.00 0.00 13 1015.8
20260507004339 88 236 1.0 4.0 0.00 0.00 0.00 13 1015.9
20260507003825 88 236 2.0 7.0 0.00 0.00 0.00 13 1015.9
20260507003316 88 236 4.0 7.0 0.00 0.00 0.00 13 1015.9
20260507002823 88 238 2.0 5.0 0.00 0.00 0.00 13 1015.8
20260507002314 88 268 1.0 6.0 0.00 0.00 0.00 13 1015.8
20260507001821 88 268 1.0 6.0 0.00 0.00 0.00 13 1015.8
20260507001331 88 267 2.0 6.0 0.00 0.00 0.00 13 1015.8
20260507000838 87 319 2.0 5.0 0.00 0.00 0.00 13 1015.8
20260507000350 87 322 3.0 6.0 0.00 0.00 0.00 13 1015.8
20260506235838 87 281 4.0 7.0 0.00 0.00 0.00 13 1015.8
20260506235328 87 224 3.0 7.0 0.00 0.00 0.00 14 1015.7
20260506234816 88 207 3.0 6.0 0.00 0.00 0.00 14 1015.8
20260506234327 88 223 2.0 7.0 0.00 0.00 0.00 13 1015.9
20260506233814 88 186 3.0 6.0 0.00 0.00 0.00 14 1015.9
20260506233325 87 242 0.0 4.0 0.00 0.00 0.00 13 1016.0
20260506232831 87 320 1.0 5.0 0.00 0.00 0.00 13 1015.9
20260506232322 87 320 2.0 9.0 0.00 0.00 0.00 13 1016.0
20260506231829 87 317 4.0 9.0 0.00 0.00 0.00 13 1016.1
20260506231320 87 258 3.0 10.0 0.00 0.00 0.00 14 1016.1
20260506230847 87 338 2.0 6.0 0.00 0.00 0.00 13 1016.1
20260506230321 87 275 2.0 8.0 0.00 0.00 0.00 14 1016.3
20260506225827 87 240 2.0 8.0 0.00 0.00 0.00 14 1016.3
20260506225316 87 208 3.0 8.0 0.00 0.00 0.00 15 1016.4
20260506224824 87 360 1.0 6.0 0.00 0.00 0.00 14 1016.4
20260506224315 86 5 1.0 9.0 0.00 0.00 0.00 14 1016.5
20260506223822 87 355 3.0 9.0 0.00 0.00 0.00 14 1016.6
20260506223333 86 36 4.0 9.0 0.00 0.00 0.00 14 1016.6
20260506222820 86 295 3.0 8.0 0.00 0.00 0.00 14 1016.6
20260506222331 86 224 3.0 10.0 0.00 0.00 0.00 15 1016.7
20260506221839 86 248 4.0 10.0 0.00 0.00 0.00 15 1016.8
20260506221333 86 241 2.0 10.0 0.00 0.00 0.00 14 1016.9
20260506220820 86 234 4.0 10.0 0.00 0.00 0.00 15 1017.0
20260506220331 85 219 4.0 8.0 0.00 0.00 0.00 16 1017.0
20260506215818 85 189 3.0 9.0 0.00 0.00 0.00 15 1017.1
20260506215329 85 191 5.0 9.0 0.00 0.00 0.00 16 1017.1
20260506214817 85 244 4.0 8.0 0.00 0.00 0.00 15 1017.2
20260506214328 85 203 1.0 6.0 0.00 0.00 0.00 15 1017.3
20260506213815 85 217 3.0 5.0 0.00 0.00 0.00 16 1017.4
20260506213326 85 136 1.0 8.0 0.00 0.00 0.00 15 1017.5
20260506212817 85 243 2.0 12.0 0.00 0.00 0.00 14 1017.6
20260506212328 85 278 5.0 12.0 0.00 0.00 0.00 14 1017.7
20260506211814 85 335 2.0 9.0 0.00 0.00 0.00 15 1017.7
20260506211325 85 288 3.0 8.0 0.00 0.00 0.00 15 1017.8
20260506210833 85 306 2.0 9.0 0.00 0.00 0.00 15 1017.9
20260506210325 85 275 3.0 9.0 0.00 0.00 0.00 16 1017.9
20260506205832 84 204 1.0 5.0 0.00 0.00 0.00 17 1017.9
20260506205343 84 204 2.0 7.0 0.00 0.00 0.00 17 1018.0
20260506204829 83 206 4.0 7.0 0.00 0.00 0.00 16 1018.1
20260506204340 83 227 1.0 8.0 0.00 0.00 0.00 17 1018.2
20260506203827 84 256 3.0 10.0 0.00 0.00 0.00 16 1018.4
20260506203342 84 320 5.0 10.0 0.00 0.00 0.00 17 1018.3
20260506202848 84 242 2.0 8.0 0.00 0.00 0.00 17 1018.3
20260506202318 83 90 3.0 8.0 0.00 0.00 0.00 17 1018.4
20260506201825 83 306 4.0 7.0 0.00 0.00 0.00 17 1018.5
20260506201316 82 203 1.0 7.0 0.00 0.00 0.00 18 1018.5
20260506200823 82 217 3.0 9.0 0.00 0.00 0.00 17 1018.6
20260506200354 82 248 3.0 10.0 0.00 0.00 0.00 17 1018.6
20260506195821 82 289 3.0 5.0 0.00 0.00 0.00 17 1018.7
20260506195332 81 53 1.0 8.0 0.00 0.00 0.00 18 1018.7
20260506194820 81 53 3.0 8.0 0.00 0.00 0.00 19 1018.8
20260506194315 81 301 3.0 6.0 0.00 0.00 0.00 19 1018.8
20260506193822 80 244 0.0 10.0 0.00 0.00 0.00 20 1018.9
20260506193331 81 275 4.0 10.0 0.00 0.00 0.00 19 1019.0
20260506192818 81 240 4.0 10.0 0.00 0.00 0.00 20 1019.0
20260506192329 80 241 5.0 10.0 0.00 0.00 0.00 20 1019.1
20260506191817 80 291 3.0 8.0 0.00 0.00 0.00 20 1019.1
20260506191328 80 232 3.0 8.0 0.00 0.00 0.00 20 1019.1
20260506190815 80 184 3.0 8.0 0.00 0.00 0.00 22 1019.2
20260506190326 79 150 2.0 8.0 0.00 0.00 0.00 20 1019.3
20260506185814 79 203 2.0 5.0 0.00 0.00 0.00 21 1019.4
20260506185329 79 201 1.0 5.0 0.00 0.00 0.00 21 1019.4
20260506184816 79 200 3.0 5.0 0.00 0.00 0.00 21 1019.5
20260506184326 79 261 3.0 8.0 0.00 0.00 0.00 21 1019.6
20260506183833 79 296 2.0 9.0 0.00 0.00 0.00 20 1019.7
20260506183324 78 300 4.0 9.0 0.00 0.00 0.00 21 1019.8
20260506182831 78 14 1.0 5.0 0.00 0.00 0.00 23 1019.8
20260506182342 78 5 2.0 6.0 0.00 0.00 0.00 23 1019.9
20260506181828 77 355 2.0 6.0 0.00 0.00 0.00 23 1019.9
20260506181339 77 279 2.0 5.0 0.00 0.00 0.00 24 1020.0
20260506180825 76 279 2.0 6.0 0.00 0.00 0.00 24 1020.1
20260506180316 76 196 3.0 6.0 0.00 0.00 0.00 24 1020.0
20260506175827 76 196 1.0 5.0 0.00 0.00 0.00 25 1020.1
20260506175318 76 230 1.0 7.0 0.00 0.00 0.00 25 1020.1
20260506174846 76 230 2.0 7.0 0.00 0.00 0.00 25 1020.2
20260506174316 76 252 1.0 9.0 0.00 0.00 0.00 25 1020.2
20260506173824 76 237 4.0 9.0 0.00 0.00 0.00 25 1020.2
20260506173315 75 198 3.0 8.0 0.00 0.00 0.00 26 1020.1
20260506172822 75 275 1.0 6.0 0.00 0.00 0.00 26 1020.1
20260506172333 75 275 2.0 7.0 0.00 0.00 0.00 26 1020.1
20260506171820 74 275 0.0 7.0 0.00 0.00 0.00 25 1020.0
20260506171315 74 222 4.0 7.0 0.00 0.00 0.00 26 1020.1
20260506170822 74 176 3.0 6.0 0.00 0.00 0.00 27 1020.0
20260506170314 73 176 1.0 4.0 0.00 0.00 0.00 27 1020.1
20260506165821 73 176 2.0 7.0 0.00 0.00 0.00 29 1020.0
20260506165332 73 199 1.0 5.0 0.00 0.00 0.00 29 1020.0
20260506164819 72 199 2.0 5.0 0.00 0.00 0.00 29 1020.0
20260506164330 72 200 1.0 4.0 0.00 0.00 0.00 28 1020.1
20260506163817 72 200 1.0 6.0 0.00 0.00 0.00 29 1020.1
20260506163328 72 200 3.0 6.0 0.00 0.00 0.00 30 1020.0
20260506162819 71 254 1.0 4.0 0.00 0.00 0.00 30 1020.0
20260506162329 71 254 2.0 4.0 0.00 0.00 0.00 29 1020.0
20260506161816 71 254 0.0 2.0 0.00 0.00 0.00 29 1020.0
20260506161347 71 254 1.0 5.0 0.00 0.00 0.00 29 1020.0
20260506160854 71 254 2.0 5.0 0.00 0.00 0.00 29 1020.1
20260506160324 71 252 2.0 4.0 0.00 0.00 0.00 29 1020.0
20260506155830 70 252 1.0 4.0 0.00 0.00 0.00 30 1020.0
20260506155341 70 252 0.0 3.0 0.00 0.00 0.00 30 1020.1
20260506154826 70 252 1.0 3.0 0.00 0.00 0.00 31 1020.1
20260506154318 70 252 2.0 3.0 0.00 0.00 0.00 31 1020.0
20260506153825 70 252 2.0 3.0 0.00 0.00 0.00 30 1020.0
20260506153316 70 252 2.0 3.0 0.00 0.00 0.00 30 1020.1
20260506152824 70 252 1.0 2.0 0.00 0.00 0.00 30 1020.1
20260506152319 70 252 0.0 2.0 0.00 0.00 0.00 31 1020.1